Regional Weather Roundup
Issued by NWS

Home | Current Version | Previous Version | Graphics & Text | Print | Product List | Glossary On
Versions: 1 2 3 4 5 6 7 8 9 10 11 12 13 14 15 16 17 18 19 20 21 22 23 24 25 26 27
000
ASUS45 KCYS 291410
RWRWY

WYOMING REGIONAL WEATHER ROUNDUP
NATIONAL WEATHER SERVICE CHEYENNE WY
800 AM MDT SUN MAY 29 2016

NOTE:  "FAIR" INDICATES FEW OR NO CLOUDS BELOW 12,000 FEET
WITH NO SIGNIFICANT WEATHER AND/OR OBSTRUCTIONS TO VISIBILITY.

WYZ001-291500-
YELLOWSTONE NATIONAL PARK

CITY           SKY/WX    TMP DP  RH WIND       PRES   REMARKS
LK YELLOWSTONE   N/A     36  30  79 E3        30.27R
W YELLOWSTONE  NOT AVBL

$$
WYZ002>013-054>058-071-098>099-291500-
NORTHERN WYOMING

CITY           SKY/WX    TMP DP  RH WIND       PRES   REMARKS
JACKSON        SUNNY     37  30  75 CALM      30.23F
CODY           FAIR      54  36  50 S9        30.11S
GREYBULL       FAIR      54  45  71 CALM      30.10R
WORLAND        FAIR      55  45  68 S5        30.11R
SHERIDAN       FAIR      56  45  66 CALM      30.08S
BUFFALO        FAIR      57  43  59 SE5       30.13R
GILLETTE       FAIR      57  47  69 SE8       30.10R
HULETT         FAIR      59  46  63 CALM      30.11S
NEWCASTLE      FAIR      61  41  48 NE9       30.11F

$$
WYZ014>020-022>026-101>103-291500-
CENTRAL WYOMING

CITY           SKY/WX    TMP DP  RH WIND       PRES   REMARKS
BIG PINEY      FAIR      40  31  70 SE3       30.25R
PINEDALE       FAIR      39  32  75 NW7       30.25S WCI  34
DUBOIS         FAIR      43  25  49 NW14      30.20F
LANDER         FAIR      49  31  49 CALM      30.15R
RIVERTON       FAIR      53  33  46 NW8       30.16R
CASPER         FAIR      52  45  77 W5        30.15R
DOUGLAS          N/A    N/A N/A N/A MISG      30.14S

$$
WYZ021-027>030-104>119-291500-
SOUTHERN WYOMING

CITY           SKY/WX    TMP DP  RH WIND       PRES   REMARKS
EVANSTON       FAIR      47  33  58 S3        30.23R
KEMMERER         N/A     43  32  65 N12       30.23F
FORT BRIDGER   SUNNY     50  36  57 SE3       30.26S
ROCK SPRINGS   FAIR      48  39  71 CALM      30.24R
DIXON          FAIR      50  38  64 SE6       30.26R
RAWLINS        FAIR      54  36  50 W12       30.22S
SARATOGA       FAIR      52  37  58 SE5       30.25R
LARAMIE        FAIR      50  36  58 S6        30.24R
CHEYENNE       FAIR      59  42  53 W8        30.19R
TORRINGTON     FAIR      51  46  83 CALM      30.12R
PINE BLUFFS    FAIR      55  45  67 CALM      30.16S

$$




USA.gov is the U.S. government's official web portal to all federal, state and local government web resources and services.